Location: Newark
(48.5667°N, 7.8167°E)
Time: 07:36:24
(UTC+00:00)

JY1SAT - Pass Details

Date: 27 July 2021
Orbit: 568 x 591 km, 97.7° (Epoch: 26 September)

Event Time Altitude Azimuth Distance (km) Brightness Sun altitude
Exits shadow 20:59:23 22° 162° (SSE) 1,310 ? -14.0°
Maximum altitude 21:02:03 83° 75° (ENE) 599 ? -14.3°
Drops below altitude 10° 21:06:15 10° 348° (NNW) 1,931 ? -14.7°
Sets 21:08:26 0° 348° (NNW) 2,839 ? -14.9°
